Regional Weather Roundup
Issued by NWS Wakefield, VA

Home | Current Version | Previous Version | Graphics & Text | Print | Product List | Glossary On
Versions: 1 2 3 4 5 6 7 8 9 10 11 12 13 14 15 16 17 18 19 20 21 22 23 24 25 26 27 28 29 30 31 32 33 34 35 36 37 38 39 40 41 42 43 44 45 46 47 48 49 50
000
ASUS41 KAKQ 030814
RWRAKQ

REGIONAL WEATHER ROUNDUP
NATIONAL WEATHER SERVICE WAKEFIELD VA
400 AM EDT SUN MAY 03 2015

Note: "fair" indicates few or no clouds below 12,000 feet with no
significant weather and/or obstructions to visibility. * = Denotes
station may not report precipitation (e.g., rain,snow,etc.),
thunder or fog.

VAZ042-051-052>054-056-030900-
NORTHERN VIRGINIA

CITY           SKY/WX    TMP DP  RH WIND       PRES   REMARKS
WASH NATIONAL  MOCLDY    57  50  77 S6        30.04S
DULLES         PTCLDY    46  42  86 CALM      30.05R
FORT BELVOIR   CLOUDY    46  45  95 CALM      30.04S
QUANTICO       PTCLDY    56  46  69 W7        30.05R
FREDERICKSBRG* PTCLDY    49  49 100 CALM      30.05R
STAFFORD*      PTCLDY    45  32  61 CALM      30.09R
WARRENTON      PTCLDY    44  44 100 CALM      30.05S
CULPEPER*      NOT AVBL
MANASSAS*      PTCLDY    46  46 100 CALM      30.06R
LEESBURG*      CLEAR     54  45  71 CALM      30.06R
WINCHESTER     CLEAR     48  37  66 CALM      30.08R
FRONT ROYAL*   FAIR      52  43  71 S8        30.07R
LURAY*         PTSUNNY   46  46 100 CALM      30.09R
$$

VAZ048-049-060>072-079>083-030900-
CENTRAL AND SOUTH CENTRAL VIRGINIA

CITY           SKY/WX    TMP DP  RH WIND       PRES   REMARKS
RICHMOND       CLEAR     57  46  66 W5        30.07R
CHESTERFIELD*  FAIR      54  39  58 W5        30.09S
PETERSBURG*    CLEAR     48  46  93 W5        30.08S
HANOVER        CLEAR     48  46  93 CALM      30.08S
TAPPAHANNOCK*  CLEAR     54  44  69 SW5       30.06S
QUINTON*       FAIR      48  47  96 CALM      30.06S
CHARLOTTSVILLE PTCLDY    48  44  86 CALM      30.07S
GORDONSVILLE*  FAIR      45  43  92 SW5       30.06R
ORANGE*        CLEAR     54  43  66 CALM      30.08R
LOUISA*        CLEAR     52  45  76 W3        30.06R
BUMPASS*       FAIR      47  43  87 CALM      30.07R
FARMVILLE*     CLOUDY    48  48 100 CALM      30.08S
CREWE*         CLOUDY    48  46  94 CALM      30.08S
FORT PICKETT*  CLOUDY    49  48  96 SW3       30.09S
CHASE CITY*    PTSUNNY   50  50 100 CALM      30.10S
CLARKSVILLE*   CLOUDY    48  46  93 CALM      30.10R
SOUTH HILL*    PTCLDY    47  45  90 CALM      30.15R
LAWRENCEVILLE* FAIR      48  47  95 W3        30.09R
EMPORIA*       FOG       43  43 100 CALM      30.10S VSB 1/4
$$

VAZ088>098-030900-
SOUTHEAST VIRGINIA

CITY           SKY/WX    TMP DP  RH WIND       PRES   REMARKS
NORFOLK        CLEAR     55  49  80 SW10      30.07S
VIRGINIA BEACH CLEAR     51  48  89 SW7       30.07R
NORFOLK NAVAL  CLEAR     57  49  74 SW5       30.09R
WEST POINT*    CLEAR     50  47  90 CALM      30.08S
SALUDA*        FAIR      48  46  95 CALM      30.06S
NEWPORT NEWS   CLEAR     55  49  80 W6        30.08R
LANGLEY AFB    CLEAR     53  50  87 W6        30.06S
FORT EUSTIS    CLEAR     54  54 100 SW3       30.06R
WILLIAMSBURG*  CLEAR     54  52  94 CALM      30.08S
HR EXEC AP*    FAIR      45  43  93 CALM      30.10R
FRANKLIN*      CLEAR     49  48  96 CALM      30.09S
WAKEFIELD      CLEAR     48  45  89 CALM      30.08R
$$

VAZ020-022-025-037-045-030900-
WEST CENTRAL AND SOUTHWEST VIRGINIA

CITY           SKY/WX    TMP DP  RH WIND       PRES   REMARKS
STAUNTON*      MOCLDY    46  43  91 CALM      30.12R
WAYNESBORO*    FAIR      45  41  88 CALM      30.11R
HOT SPRINGS VA CLEAR     51  32  47 W5        30.15R
LYNCHBURG      CLOUDY    47  46  97 CALM      30.12R
DANVILLE       PTCLDY    50  46  86 SW5       30.11S
SOUTH BOSTON*  CLOUDY    46  45  95 CALM      30.11R
MARTINSVILLE   CLEAR     40  40 100 CALM      30.15S
ROANOKE        CLEAR     46  42  86 CALM      30.14S
BLACKSBURG     CLEAR     40  38  93 CALM      30.17S
DUBLIN*        CLEAR     44  40  85 CALM      30.16S
MARION*        CLEAR     40  37  88 CALM      30.18S
HILLSVILLE*    CLEAR     47  37  68 SW6       30.16S
RICHLANDS*     FAIR      51  -7   9 CALM      30.15R
WISE*          CLEAR     55  30  38 CALM      30.16R
ABINGDON*      CLEAR     46  38  75 E3        30.14S
$$

MDZ021>025-VAZ099-100-030900-
SOUTHERN MARYLAND AND THE DELMARVA PENINSULA

CITY           SKY/WX    TMP DP  RH WIND       PRES   REMARKS
PATUXENT RIVER CLEAR     54  48  80 W5        30.03S
BAY BRIDGE APT   N/A    N/A N/A N/A S3        30.02S
LEONARDTOWN    CLEAR     54  46  76 SW6       30.05S
DOVER          MOCLDY    48  48 100 S3        29.99S
GEORGETOWN     CLEAR     46  43  89 SW6       30.04S
EASTON         PTCLDY    54  54 100 CALM      30.06S
CAMBRIDGE      CLEAR     54  52  94 S3        30.03S
SALISBURY      CLEAR     44  42  93 CALM      30.04S
OCEAN CITY     CLEAR     51  47  86 VRB5      30.05S
WALLOPS ISLAND FAIR      49  47  93 SW5       30.05S
ACCOMACK*      CLEAR     50  50 100 SW5       30.06R
$$

NCZ012>017-030>032-030900-
NORTH CENTRAL AND EASTERN NORTH CAROLINA

CITY           SKY/WX    TMP DP  RH WIND       PRES   REMARKS
ROANOKE RAPIDS FAIR      46  45  93 W6        30.09S
RALEIGH        PTCLDY    49  47  93 CALM      30.11S
ELIZABETH CITY CLEAR     51  48  89 SW5       30.09R
AHOSKIE*       CLEAR     47  46  97 CALM      30.10S
EDENTON*       CLEAR     56  52  86 W8        30.10R
CURRITUCK*     CLEAR     51  48  89 CALM      30.09S
KILL DEVIL HLS CLEAR     52  49  87 SW3       30.08R
MANTEO         CLEAR     54  48  80 W5        30.10R
CAPE HATTERAS  CLEAR     48  48 100 W5        30.09S
TARBORO*       FAIR      46  45  97 CALM      30.11S FOG
GOLDSBORO      CLEAR     49  49 100 CALM      30.09R
WASHINGTON     CLEAR     50  49  94 CALM      30.11S
GREENVILLE     CLEAR     52  52 100 CALM      30.12R
NEW BERN       PTCLDY    47  44  90 CALM      30.12S FOG
WILMINGTON     CLEAR     52  50  93 CALM      30.11S
$$

VAZ048-030900-
ELSEWHERE

CITY           SKY/WX    TMP DP  RH WIND       PRES   REMARKS
HARRISBURG PA  PTCLDY    49  44  83 NW7       30.03R
BALTIMORE      MOCLDY    52  44  74 CALM      30.01S
ANNAPOLIS      CLOUDY    57  47  69 CALM      30.01S
ANDREWS AFB    CLOUDY    56  46  68 SW5       30.03R
PHILADELPHIA   MOCLDY    51  44  77 E5        30.05R
HENDERSON NC   PTCLDY    48  47  94 SW5       30.10S
GREENSBORO     PTCLDY    50  45  83 CALM      30.12R
ROCKY MOUNT    CLEAR     48  48 100 CALM      30.10S
$$

VAZ100-030900-
MARINE

STATION/POSITION TIME  TEMP    WIND        PRES    WAVE   SWELL
                       AIR SEA DIR/SP/G            HT/PER HT/PER
                 (UTC) (F)     (DEG/KT/KT) (MB)    (FT/S) (FT/S)
BRANDYWINE LGT   0700   53 53  200/ 11/ 13 1017.2F
CAPE MAY NJ      0700   52 58  150/  7/  9 1016.8F
LEWES DE         0700   52 53  170/  6/  8 1016.8F
15NM E FENWICK I 0750   50 48              1017.2F   6/ 9
OCEAN-CITY-INLET 0700   53 54  200/  5/  8 1017.1F
WACHAPREAGUE VA  0700   54 60  230/  5/  6 1017.6F
THOMAS POINT MD  0800   59 57  210/  4/  4 1017.3R
GOOSES REEF MD   0800   59 56                N/A     0
COVE POINT MD    0700   60     270/ 11/ 14 1017.2F
SOLOMONS ISLAND  0700      59                N/A
BISHOPS HEAD MD  0700   58 60  190/  7/  8 1016.7F
PINEY POINT MD   0700          310/  6/  8   N/A
CAMBRIDGE MD     0700   54 60  170/  2/  3 1016.7F
LEWISETTA VA     0700   58 62              1016.9S
RAPPAHANNOCK LGT 0700          210/ 10/ 11 1018.1F
YORK RVR RNG VA  0700   58     250/ 10/ 11 1017.2F
YORKTOWN VA      0700   56 59  230/  9/ 14 1017.5R
JAMESTOWN VA     0800   55 62  230/  2/  6 1017.5R
DOMINION TERM VA 0700   57     240/  7/  9 1018.2S
KIPTOPEKE VA     0700      62  220/  6/  7   N/A
CHES BAY BRIDGE  0700   56 58  210/ 10/ 11 1017.6S
CAPE HENRY VA    0700   54     220/ 10/ 15 1016.6F
CHESAPEAKE LGHT  0700   54     230/ 12/ 12 1018.6F
WILLOUBY STN VA  0700   56     230/ 12/ 14 1018.6F
S CRANEY ISL VA  0700          210/  4/  7 1018.2S
CAPE HENRY BUOY  0728      52                N/A     4/11   2/11
1ST LANDING BUOY 0800      57                N/A     3/ 6
CAPE CHARLES BUO 0726      54                N/A     5/11   5/11
OFFSHORE WE BUOY 0711      51                N/A     6/11   7/11
64NM E OF VA BCH 0750   53 54  280/  4/  6 1018.3R   7/11   7/11
DUCK PIER NC     0700   55 53  230/  6/  7 1017.6S
44056 DUCK FRF   0711      55                N/A     5/11   3/11
OREGON INLET NC  0700   54 57  250/  5/  7 1018.7S
HATTERAS NC      0700   58 61  270/  7/  8 1018.5S
DIAMOND SHLS NC  0650   54     310/  6/  6 1019.0    5/11   5/11
CAPE LOOKOUT NC  0800   59     240/  5/  5 1019.1S
$$



USA.gov is the U.S. government's official web portal to all federal, state and local government web resources and services.